Dewpoint
45 45 44 43 43 42 41 40 40 40 40 38 37 36 35 35 34 32 32 32 31 31 31 31 30 31 32 31 31 30 29 28 25 25 25 19 17 16 21 32 29 30 31
43 42 41 42 42 40 39 38 39 38 38 36 36 34 33 32 31 30 29 31 31 30 28 27 28 28 26 26 27 26 26 26 25 21 19 18 15 15 19 30 30 26 28
41 41 41 41 40 38 37 37 37 36 33 32 31 31 31 32 30 30 30 30 28 26 25 23 23 23 21 23 22 21 20 21 20 19 17 17 16 16 16 28 28 23 16
43 41 41 41 38 35 35 35 35 32 30 29 31 31 32 30 29 28 29 28 25 24 24 23 22 21 19 20 19 20 19 18 18 17 15 13 13 14 15 14 23 18 16
41 41 41 39 35 34 34 34 33 30 30 30 31 32 32 31 29 30 30 26 23 22 22 20 22 23 24 21 18 18 18 17 15 14 13 12 12 13 13 14 21 17 16
40 40 39 35 34 33 34 34 33 31 30 30 30 31 29 30 30 32 28 23 20 21 19 20 21 22 21 23 22 22 19 16 14 14 13 12 12 13 14 15 15 15 11
38 39 36 34 33 33 34 34 32 32 32 32 30 28 28 30 30 32 30 24 20 20 20 19 14 16 19 16 18 19 19 20 17 14 12 13 14 16 16 15 16 14 10
37 36 35 34 34 33 33 32 32 32 32 31 29 28 28 30 30 30 28 25 24 23 21 21 19 19 18 16 13 14 16 16 16 14 15 15 16 16 16 16 17 14 15
34 33 33 33 32 32 32 32 32 32 31 28 28 28 28 29 29 28 26 23 22 21 19 19 18 19 20 21 17 16 13 10 19 19 19 19 18 18 17 15 16 18 15
33 32 32 32 32 32 32 31 32 31 30 28 27 27 28 27 28 26 25 22 20 19 19 19 18 18 19 19 13 11 9 4 7 8 8 11 13 13 18 14 15 11 7
32 32 32 32 31 31 30 30 30 28 27 26 25 26 26 26 28 27 25 22 19 18 17 17 18 19 21 19 18 11 8 3 8 5 3 3 2 3 4 5 10 12 8
32 31 30 30 31 30 29 29 29 28 26 25 24 24 24 24 25 28 25 23 22 18 15 15 16 17 18 18 15 18 20 11 9 2 1 0 0 1 3 3 5 9 10
30 29 29 29 30 30 28 28 28 27 25 24 23 22 21 22 21 26 30 29 22 16 15 16 17 16 17 18 19 20 12 9 6 3 2 3 3 4 4 8 8 8 9
28 28 28 28 28 29 29 28 27 26 25 25 23 21 20 19 18 21 22 22 19 17 16 13 11 13 6 4 10 10 6 5 5 4 5 5 7 9 6 5 7 6 6
27 28 28 28 27 27 28 28 28 28 27 25 24 22 19 17 16 20 18 15 14 13 7 2 2 1 1 1 2 5 5 6 8 7 8 8 8 10 10 10 9 8 3
27 26 26 26 27 26 26 27 30 30 29 28 26 24 22 20 20 22 21 19 18 15 7 2 1 1 6 6 8 8 10 9 10 12 11 11 11 10 9 10 8 2 -0
27 27 26 26 26 25 25 24 24 29 29 28 28 26 24 22 21 20 20 20 16 15 8 6 5 9 9 16 14 13 11 11 14 13 12 10 11 12 10 10 7 6 4
28 28 27 26 27 26 24 23 23 22 21 23 30 27 25 23 23 22 21 19 15 14 13 14 12 13 15 12 12 11 10 12 12 13 11 10 8 11 9 7 7 1 4
28 27 27 28 27 26 25 24 23 21 20 19 22 23 25 24 22 20 18 11 9 10 15 16 15 15 13 12 12 12 10 8 8 8 10 9 1 7 4 6 6 2 3
29 28 28 28 27 26 25 23 23 21 20 18 17 17 19 21 18 15 9 10 12 14 15 15 15 13 14 13 11 10 6 6 8 8 4 1 -4 4 5 5 4 3 6
28 29 28 28 27 26 24 23 22 20 19 18 17 17 16 16 15 13 14 15 17 16 14 14 14 14 15 14 14 12 12 12 10 8 8 5 -2 3 6 6 5 7 7
28 29 28 27 28 26 25 24 22 21 20 19 19 18 17 17 16 15 15 17 17 17 16 14 14 14 13 13 14 12 10 8 8 6 5 3 3 3 1 1 -2 -1 2
27 27 27 27 26 24 21 23 20 20 19 21 20 19 18 18 19 18 18 18 16 16 16 15 14 13 13 13 14 14 11 10 9 6 2 -1 1 -1 -4 -5 -2 -4 -4
25 23 25 22 21 20 18 16 17 19 19 20 20 20 19 17 19 20 19 17 16 14 14 14 15 13 11 11 12 11 10 7 6 4 2 1 -0 -1 -5 -5 -5 -8 -8
26 22 21 21 18 19 19 17 14 14 16 17 15 17 12 13 19 19 18 16 15 14 12 12 12 12 11 10 9 7 7 3 2 1 1 -2 -6 -9 -8 -7 -8 -4 -3
27 26 25 24 25 21 18 14 13 14 15 19 17 17 16 13 19 19 18 16 15 14 13 12 11 10 9 7 5 4 0 -2 -5 -7 -8 -5 -10 -11 -10 -5 -6 -9 -8
Lifted_Index
2 3 3 4 4 5 6 8 9 9 9 10 11 12 13 14 14 14 14 14 14 15 15 15 15 16 16 16 16 17 17 16 16 16 18 19 19 20 21 20 18 18 18
3 3 4 4 4 5 6 7 8 9 9 10 12 13 14 14 15 15 15 14 14 15 15 15 15 16 16 16 16 17 17 17 16 16 17 18 19 20 20 18 17 17 18
3 3 4 5 5 5 6 7 8 9 10 11 12 13 14 15 16 16 15 15 14 15 15 16 16 16 16 16 17 18 18 18 17 17 16 17 18 19 18 17 16 17 17
4 4 5 5 6 6 6 7 8 9 10 11 13 14 15 16 16 16 16 15 14 16 16 17 17 17 17 17 18 18 18 18 17 17 16 16 17 17 16 15 15 16 17
4 4 4 5 5 5 6 6 7 8 10 12 13 15 16 16 15 16 16 15 16 17 17 18 19 19 18 18 19 19 19 18 17 16 15 15 15 15 14 14 14 15 16
3 3 3 4 4 5 5 6 7 8 10 12 13 14 15 15 15 16 16 16 17 17 17 18 19 19 19 19 20 20 19 19 18 17 15 15 14 14 15 14 14 14 14
3 3 3 4 5 5 6 7 8 9 10 11 13 14 14 14 16 17 17 17 17 17 17 18 19 19 19 20 20 20 20 20 19 18 16 16 15 16 16 15 14 14 14
2 3 4 5 6 6 7 8 9 10 11 12 13 13 14 15 17 18 18 17 17 17 18 18 19 19 19 20 20 20 20 20 20 19 18 18 18 17 17 16 15 15 15
2 3 5 6 7 8 9 10 10 11 12 13 14 14 15 17 18 18 18 18 18 18 18 19 20 20 20 20 20 19 19 19 19 19 19 19 19 19 18 17 16 15 14
2 4 6 7 8 9 10 11 12 13 14 14 15 15 16 17 18 18 18 18 18 18 19 20 20 20 21 21 20 19 18 18 18 19 19 19 20 20 19 18 17 16 15
3 5 7 8 8 10 11 12 13 14 14 14 15 15 17 18 18 18 18 18 18 18 18 19 20 21 21 21 21 20 19 18 18 18 18 18 19 19 19 19 19 18 17
4 6 8 8 9 10 11 12 13 14 14 14 13 14 17 18 19 19 19 19 18 18 18 19 20 21 21 21 21 20 19 18 18 17 17 17 18 18 19 19 20 20 20
5 7 8 9 10 10 11 12 13 13 13 13 13 14 16 18 19 19 19 18 18 18 19 20 20 21 21 21 20 20 19 18 17 17 17 17 18 18 19 19 20 20 20
6 7 9 9 10 11 12 12 13 13 13 13 13 14 16 17 18 18 18 18 18 18 19 20 20 20 20 20 19 19 18 18 17 17 17 17 18 18 19 19 19 19 19
7 7 9 10 10 11 12 13 13 14 14 14 14 15 16 16 17 18 18 18 18 19 19 19 19 19 18 18 18 18 18 17 17 17 17 17 17 17 18 19 19 19 18
7 7 8 9 10 11 11 12 13 15 15 15 16 16 16 17 18 18 19 19 19 19 19 18 18 17 17 17 17 17 17 17 17 17 17 17 17 17 18 18 19 18 18
7 7 8 9 10 11 11 11 12 14 15 15 16 16 16 17 17 18 19 19 20 19 18 18 17 17 17 17 17 17 17 18 18 18 18 18 18 18 18 18 18 18 18
8 8 8 9 10 11 11 11 12 12 13 14 15 16 16 16 17 18 19 19 19 19 18 17 17 17 17 17 17 17 18 18 18 18 18 18 18 18 18 18 18 18 18
8 8 9 9 10 10 11 11 12 12 12 14 15 15 16 16 17 17 18 18 18 18 18 18 17 17 17 17 18 18 18 18 18 18 18 18 18 18 18 18 18 19 19
9 9 9 9 10 10 10 11 11 12 12 13 15 15 16 16 17 17 18 18 18 19 18 18 18 18 18 18 18 18 18 18 18 18 18 18 18 18 18 19 19 19 19
9 9 10 10 10 10 10 11 11 12 12 13 14 15 16 16 16 17 18 18 18 19 19 18 18 18 18 18 18 18 18 18 18 18 18 18 19 19 19 19 19 19 19
10 10 10 10 10 10 11 11 12 12 13 13 14 15 15 16 16 17 17 18 18 18 19 19 19 19 19 19 19 19 18 18 18 18 18 19 19 19 19 19 19 19 19
10 10 10 10 11 11 12 12 13 13 13 14 14 15 15 15 16 16 17 17 18 18 18 19 19 19 19 19 19 19 19 19 19 19 19 19 19 19 19 19 19 19 19
11 11 11 11 11 12 12 13 13 14 14 14 14 14 14 14 15 15 16 17 17 17 18 18 19 19 19 19 19 20 19 19 20 20 20 20 19 19 19 19 19 19 19
11 11 11 11 12 12 12 13 13 13 13 13 13 13 14 14 14 15 15 16 16 16 17 18 18 18 19 19 19 20 20 20 20 20 20 20 20 20 19 19 19 19 19
11 11 12 12 12 12 13 13 13 13 13 13 13 13 13 13 14 14 15 15 15 16 16 17 18 18 18 19 19 20 20 20 20 21 21 20 20 19 19 19 19 19 19